NIMBUS 2 DEB, 40647

Orbit data source: Space-Track

NIMBUS 2 DEB, 40647 is space debris in SSO originally from a launch on Sun, 15 May 1966 UTC launched from the Air Force Western Test Range (AFWTR). Debris objects in space refer to the collection of defunct objects orbiting the Earth. Examples of debris include non-operational satellites, rocket bodies, and fragments generated from explosions, collisions, or faulty payload assembly.

Loading next visibility...
Identifier
40647, 1966-040BL
Orbit
SSO
Country
Flag of USUS
Related business
Manufacturer
Unknown
Mission
Spacecraft
Bus & Motor
Unknown
Mass
Unknown
Launch date (UTC)
1966-05-15 (59 years ago)
Launch vehicle
Unknown
Launch site
Air Force Western Test Range (AFWTR)
Object type
Payload
Rocket body
Debris
Shape & HBR
Unknown shape, 0.1 m
Radar Cross Section
Small (<0.1 m²)

Expand to show TLE details & history
Last TLE update: 14 hours ago

TLE from 14 hours ago
0 NIMBUS 2 DEB
1 40647U 66040BL  25286.97097333  .00002714  00000-0  46791-2 0  9994
2 40647 100.2794 108.7120 0041439  15.6358 344.6041 13.44868602509349
Epoch: 2025-10-13T23:18Z
TLE epoch observation values (Epoch: 2025-10-13T23:18:12.095Z)
Latitude
-0.00005°
Longitude
96.39551°
Altitude
1,064.118 km
Speed
7.335 km/s
True Right ascension
07h 14m 50s
True Declination
0° 00' 00"
Sunlit
Object was in daylight at epoch
Visualization orbit readout
Latitude
Unknown
Longitude
Unknown
Altitude
Unknown
Speed
Unknown
Apparent Right ascension
Unknown
Apparent Declination
Unknown
Sunlit
N/A
Visualization observer readout
Local Sidereal Time
08:11:24
Azimuth
Unknown
Elevation
Unknown
Doppler factor
Unknown
Orbital elements
Apogee altitude
1,119.478 km
Perigee altitude
1,057.596 km
Semi-major axis
7,466.674 km
Eccentricity
0.00414
Inclination
100.2794°
RAAN
108.712°
Arg. of periapsis
15.6358°
True anomaly
344.4774°
Mean anomaly
344.6041°
Eccentric anomaly
344.54081°
Mean motion
3.36397 °/min
Orbital period
107.02 mins
BSTAR
0.0046791
Loading maneuver chart data...
Computing Atmospheric mass density...
Loading historical data...
Loading historical data...
Loading historical data...
Loading historical data...
Loading historical data...
Loading historical data...
Loading historical data...

Documentation

Showing up to 5 results
|